Time,TemperatureF,DewpointF,PressureIn,WindDirection,WindDirectionDegrees,WindSpeedMPH,WindSpeedGustMPH,Humidity,HourlyPrecipIn,Conditions,Clouds,dailyrainin,SoftwareType,DateUTC
2013-01-16 00:00:00,36.3,33.8,30.20,SW,225,1.6,3.1,87,0.04,,,0.43,fowsr,2013-01-16 05:00:00,
2013-01-16 00:10:00,36.3,33.8,30.20,NW,315,2.2,4.5,87,0.02,,,0.41,fowsr,2013-01-16 05:10:00,
2013-01-16 00:20:00,36.5,34.2,30.18,North,0,2.2,4.5,88,0.02,,,0.41,fowsr,2013-01-16 05:20:00,
2013-01-16 00:25:00,36.5,34.2,30.17,North,0,3.1,4.5,88,0.02,,,0.41,fowsr,2013-01-16 05:25:00,
2013-01-16 00:30:00,36.3,34.0,30.17,NW,315,0.7,2.2,88,0.01,,,0.40,fowsr,2013-01-16 05:30:00,
2013-01-16 00:35:00,36.3,34.0,30.17,North,0,2.2,4.5,88,0.01,,,0.40,fowsr,2013-01-16 05:35:00,
2013-01-16 00:40:00,36.3,34.0,30.17,NE,45,1.6,3.8,88,0.01,,,0.39,fowsr,2013-01-16 05:40:00,
2013-01-16 00:45:00,36.5,34.2,30.17,NE,45,1.6,3.1,88,0.02,,,0.40,fowsr,2013-01-16 05:45:00,
2013-01-16 00:55:00,36.5,34.2,30.17,North,0,3.1,5.4,88,0.02,,,0.39,fowsr,2013-01-16 05:55:00,
2013-01-16 01:00:00,36.5,34.2,30.17,NW,315,3.1,5.4,88,0.02,,,0.39,fowsr,2013-01-16 06:00:00,
2013-01-16 01:05:00,36.5,34.2,30.17,North,0,4.5,7.6,88,0.02,,,0.38,fowsr,2013-01-16 06:05:00,
2013-01-16 01:10:00,36.5,34.4,30.17,NW,315,3.1,4.5,89,0.02,,,0.38,fowsr,2013-01-16 06:10:00,
2013-01-16 01:15:00,36.5,34.4,30.16,North,0,3.1,4.5,89,0.02,,,0.37,fowsr,2013-01-16 06:15:00,
2013-01-16 01:20:00,36.7,34.6,30.15,NW,315,3.1,4.5,89,0.01,,,0.35,fowsr,2013-01-16 06:20:00,
2013-01-16 01:25:00,36.7,34.6,30.15,NE,45,3.1,4.5,89,0.01,,,0.35,fowsr,2013-01-16 06:25:00,
2013-01-16 01:30:00,36.7,34.6,30.14,NE,45,3.8,4.5,89,0.01,,,0.35,fowsr,2013-01-16 06:30:00,
2013-01-16 01:35:00,36.7,34.6,30.13,East,90,3.1,3.8,89,0.01,,,0.35,fowsr,2013-01-16 06:35:00,
2013-01-16 01:40:00,36.9,34.7,30.14,North,0,5.4,8.3,89,0.01,,,0.35,fowsr,2013-01-16 06:40:00,
2013-01-16 01:45:00,36.9,34.7,30.13,NW,315,4.5,6.0,89,0.01,,,0.34,fowsr,2013-01-16 06:45:00,
2013-01-16 01:50:00,37.0,34.9,30.13,North,0,3.8,5.4,89,0.00,,,0.34,fowsr,2013-01-16 06:50:00,
2013-01-16 01:55:00,37.0,34.9,30.12,NW,315,2.2,4.5,89,0.00,,,0.33,fowsr,2013-01-16 06:55:00,
2013-01-16 02:00:00,37.2,35.3,30.12,North,0,1.6,3.8,90,0.00,,,0.33,fowsr,2013-01-16 07:00:00,
2013-01-16 02:05:00,37.2,35.3,30.12,North,0,3.1,5.4,90,0.00,,,0.33,fowsr,2013-01-16 07:05:00,
2013-01-16 02:10:00,37.2,35.3,30.12,North,0,1.6,3.1,90,0.01,,,0.34,fowsr,2013-01-16 07:10:00,
2013-01-16 02:15:00,37.2,35.3,30.12,North,0,3.8,6.0,90,0.01,,,0.33,fowsr,2013-01-16 07:15:00,
2013-01-16 02:20:00,37.2,35.3,30.13,North,0,0.7,1.6,90,0.01,,,0.33,fowsr,2013-01-16 07:20:00,
2013-01-16 02:25:00,37.4,36.3,30.12,NNW,337,3.1,4.5,94,0.02,,,0.34,fowsr,2013-01-16 07:25:00,
2013-01-16 02:30:00,37.4,36.3,30.11,NW,315,5.4,8.3,94,0.02,,,0.33,fowsr,2013-01-16 07:30:00,
2013-01-16 02:35:00,37.6,36.4,30.11,North,0,4.5,6.0,94,0.02,,,0.33,fowsr,2013-01-16 07:35:00,
2013-01-16 02:40:00,37.6,36.4,30.11,WNW,292,4.5,6.9,94,0.04,,,0.34,fowsr,2013-01-16 07:40:00,
2013-01-16 02:45:00,37.9,37.0,30.09,NW,315,3.8,6.0,95,0.04,,,0.34,fowsr,2013-01-16 07:45:00,
2013-01-16 02:50:00,38.1,37.2,30.10,NW,315,6.9,9.8,95,0.04,,,0.34,fowsr,2013-01-16 07:50:00,
2013-01-16 02:55:00,38.3,37.4,30.11,NW,315,5.4,8.3,95,0.04,,,0.34,fowsr,2013-01-16 07:55:00,
2013-01-16 03:00:00,38.5,37.5,30.11,South,180,0.0,1.6,95,0.05,,,0.35,fowsr,2013-01-16 08:00:00,
2013-01-16 03:05:00,38.5,37.5,30.10,South,180,0.0,1.6,95,0.05,,,0.35,fowsr,2013-01-16 08:05:00,
2013-01-16 03:10:00,38.5,37.5,30.09,NE,45,6.0,9.8,95,0.06,,,0.37,fowsr,2013-01-16 08:10:00,
2013-01-16 03:15:00,38.7,37.7,30.09,NW,315,5.4,7.6,95,0.05,,,0.37,fowsr,2013-01-16 08:15:00,
2013-01-16 03:20:00,38.7,37.7,30.09,NW,315,2.2,4.5,95,0.06,,,0.37,fowsr,2013-01-16 08:20:00,
2013-01-16 03:25:00,39.0,38.1,30.08,NE,45,3.8,5.4,95,0.06,,,0.35,fowsr,2013-01-16 08:25:00,
2013-01-16 03:30:00,39.2,38.0,30.09,West,270,2.2,4.5,94,0.05,,,0.34,fowsr,2013-01-16 08:30:00,
2013-01-16 03:35:00,39.4,38.2,30.09,NNW,337,2.2,3.8,94,0.05,,,0.33,fowsr,2013-01-16 08:35:00,
2013-01-16 03:40:00,39.4,38.2,30.08,North,0,6.9,10.7,94,0.06,,,0.34,fowsr,2013-01-16 08:40:00,
2013-01-16 03:45:00,39.6,38.4,30.08,SW,225,2.2,6.0,94,0.06,,,0.35,fowsr,2013-01-16 08:45:00,
2013-01-16 03:50:00,39.6,38.4,30.09,North,0,2.2,4.5,94,0.06,,,0.35,fowsr,2013-01-16 08:50:00,
2013-01-16 03:55:00,39.6,38.4,30.10,South,180,0.7,2.2,94,0.06,,,0.35,fowsr,2013-01-16 08:55:00,
2013-01-16 04:00:00,39.6,38.4,30.11,NW,315,0.7,1.6,94,0.07,,,0.37,fowsr,2013-01-16 09:00:00,
2013-01-16 04:05:00,39.6,38.4,30.09,West,270,2.2,6.0,94,0.07,,,0.37,fowsr,2013-01-16 09:05:00,
2013-01-16 04:10:00,39.4,38.2,30.11,NW,315,1.6,3.8,94,0.07,,,0.37,fowsr,2013-01-16 09:10:00,
2013-01-16 04:15:00,39.4,38.2,30.10,NW,315,3.8,8.3,94,0.06,,,0.37,fowsr,2013-01-16 09:15:00,
2013-01-16 04:20:00,39.2,38.0,30.10,NW,315,5.4,9.2,94,0.07,,,0.38,fowsr,2013-01-16 09:20:00,
2013-01-16 04:30:00,38.7,37.7,30.10,SE,135,2.2,3.8,95,0.06,,,0.38,fowsr,2013-01-16 09:30:00,
2013-01-16 04:35:00,38.3,37.4,30.10,NW,315,6.9,9.2,95,0.07,,,0.39,fowsr,2013-01-16 09:35:00,
2013-01-16 04:40:00,37.9,37.0,30.08,NW,315,6.9,11.4,95,0.07,,,0.39,fowsr,2013-01-16 09:40:00,
2013-01-16 04:45:00,37.8,36.8,30.09,NNW,337,5.4,8.3,95,0.07,,,0.40,fowsr,2013-01-16 09:45:00,
2013-01-16 04:50:00,37.6,36.6,30.09,NW,315,6.9,13.0,95,0.07,,,0.41,fowsr,2013-01-16 09:50:00,
2013-01-16 04:55:00,37.4,36.3,30.09,North,0,6.0,9.8,94,0.07,,,0.41,fowsr,2013-01-16 09:55:00,
2013-01-16 05:00:00,37.4,36.3,30.09,North,0,4.5,7.6,94,0.08,,,0.43,fowsr,2013-01-16 10:00:00,
2013-01-16 05:05:00,37.4,36.3,30.09,North,0,4.5,7.6,94,0.07,,,0.43,fowsr,2013-01-16 10:05:00,
2013-01-16 05:10:00,37.0,35.1,30.08,North,0,4.5,9.2,90,0.07,,,0.44,fowsr,2013-01-16 10:10:00,
2013-01-16 05:20:00,36.9,34.9,30.08,South,180,6.0,9.2,90,0.07,,,0.44,fowsr,2013-01-16 10:20:00,
2013-01-16 05:25:00,36.7,34.8,30.08,NW,315,4.5,6.9,90,0.06,,,0.44,fowsr,2013-01-16 10:25:00,
2013-01-16 05:35:00,36.7,34.8,30.08,NW,315,2.2,3.8,90,0.07,,,0.45,fowsr,2013-01-16 10:35:00,
2013-01-16 05:40:00,36.7,34.8,30.06,NW,315,6.0,9.2,90,0.06,,,0.45,fowsr,2013-01-16 10:40:00,
2013-01-16 05:45:00,36.7,34.8,30.06,North,0,5.4,9.2,90,0.06,,,0.45,fowsr,2013-01-16 10:45:00,
2013-01-16 05:50:00,36.7,34.8,30.04,NE,45,4.5,6.9,90,0.05,,,0.44,fowsr,2013-01-16 10:50:00,
2013-01-16 05:55:00,36.7,34.8,30.07,NW,315,5.4,7.6,90,0.04,,,0.44,fowsr,2013-01-16 10:55:00,
2013-01-16 06:00:00,36.7,34.8,30.04,North,0,3.8,5.4,90,0.04,,,0.44,fowsr,2013-01-16 11:00:00,
2013-01-16 06:05:00,36.7,34.8,30.06,NW,315,2.2,5.4,90,0.04,,,0.45,fowsr,2013-01-16 11:05:00,
2013-01-16 06:10:00,36.9,34.9,30.08,NW,315,5.4,12.1,90,0.04,,,0.45,fowsr,2013-01-16 11:10:00,
2013-01-16 06:15:00,36.9,34.9,30.03,North,0,9.2,13.6,90,0.02,,,0.45,fowsr,2013-01-16 11:15:00,
2013-01-16 06:20:00,36.9,34.9,30.05,North,0,3.8,5.4,90,0.02,,,0.45,fowsr,2013-01-16 11:20:00,
2013-01-16 06:25:00,37.0,35.1,30.06,North,0,3.1,6.9,90,0.02,,,0.45,fowsr,2013-01-16 11:25:00,
2013-01-16 06:30:00,37.0,35.1,30.05,NW,315,6.0,7.6,90,0.02,,,0.45,fowsr,2013-01-16 11:30:00,
2013-01-16 06:35:00,37.2,35.3,30.04,NW,315,1.6,3.8,90,0.01,,,0.45,fowsr,2013-01-16 11:35:00,
2013-01-16 06:40:00,37.4,36.3,30.04,East,90,2.2,3.8,94,0.01,,,0.45,fowsr,2013-01-16 11:40:00,
2013-01-16 06:45:00,37.4,36.3,30.05,West,270,1.6,2.2,94,0.01,,,0.45,fowsr,2013-01-16 11:45:00,
2013-01-16 06:50:00,37.6,36.4,30.05,NW,315,2.2,3.1,94,0.01,,,0.45,fowsr,2013-01-16 11:50:00,
2013-01-16 06:55:00,37.6,36.4,30.07,West,270,1.6,4.5,94,0.01,,,0.45,fowsr,2013-01-16 11:55:00,
2013-01-16 07:00:00,37.6,36.4,30.07,SE,135,1.6,3.8,94,0.01,,,0.45,fowsr,2013-01-16 12:00:00,
2013-01-16 07:05:00,37.8,36.6,30.08,NW,315,4.5,7.6,94,0.01,,,0.45,fowsr,2013-01-16 12:05:00,
2013-01-16 07:10:00,37.8,36.6,30.07,NW,315,2.2,3.8,94,0.00,,,0.45,fowsr,2013-01-16 12:10:00,
2013-01-16 07:15:00,37.8,36.6,30.07,NW,315,1.6,2.2,94,0.00,,,0.45,fowsr,2013-01-16 12:15:00,
2013-01-16 07:20:00,37.6,36.4,30.07,North,0,2.2,3.8,94,0.00,,,0.45,fowsr,2013-01-16 12:20:00,
2013-01-16 07:25:00,37.6,36.4,30.07,NW,315,3.1,4.5,94,0.00,,,0.45,fowsr,2013-01-16 12:25:00,
2013-01-16 07:30:00,37.6,36.4,30.07,South,180,1.6,3.8,94,0.00,,,0.45,fowsr,2013-01-16 12:30:00,
2013-01-16 07:35:00,37.6,36.4,30.08,NNW,337,1.6,3.1,94,0.00,,,0.45,fowsr,2013-01-16 12:35:00,
2013-01-16 07:40:00,37.6,36.4,30.07,North,0,0.7,2.2,94,0.00,,,0.45,fowsr,2013-01-16 12:40:00,
2013-01-16 07:45:00,37.6,36.4,30.06,NW,315,1.6,3.8,94,0.00,,,0.45,fowsr,2013-01-16 12:45:00,
2013-01-16 07:50:00,37.6,36.4,30.06,North,0,4.5,6.0,94,0.00,,,0.45,fowsr,2013-01-16 12:50:00,
2013-01-16 07:55:00,37.4,36.3,30.07,North,0,2.2,5.4,94,0.00,,,0.45,fowsr,2013-01-16 12:55:00,
2013-01-16 08:00:00,37.6,36.4,30.07,NW,315,0.0,1.6,94,0.00,,,0.45,fowsr,2013-01-16 13:00:00,
2013-01-16 08:05:00,37.6,36.4,30.06,NE,45,2.2,4.5,94,0.00,,,0.45,fowsr,2013-01-16 13:05:00,
2013-01-16 08:10:00,37.6,36.4,30.06,North,0,0.0,1.6,94,0.00,,,0.45,fowsr,2013-01-16 13:10:00,
2013-01-16 08:15:00,37.8,36.6,30.06,NW,315,0.0,0.7,94,0.00,,,0.45,fowsr,2013-01-16 13:15:00,
2013-01-16 08:20:00,37.8,36.6,30.08,North,0,0.7,1.6,94,0.00,,,0.45,fowsr,2013-01-16 13:20:00,
2013-01-16 08:30:00,38.1,37.0,30.07,SW,225,1.6,3.1,94,0.00,,,0.45,fowsr,2013-01-16 13:30:00,
2013-01-16 08:35:00,38.1,37.0,30.07,North,0,0.0,1.6,94,0.00,,,0.45,fowsr,2013-01-16 13:35:00,
2013-01-16 08:40:00,38.3,37.2,30.06,North,0,0.0,0.7,94,0.00,,,0.45,fowsr,2013-01-16 13:40:00,
2013-01-16 08:45:00,38.5,37.3,30.06,NE,45,0.7,2.2,94,0.00,,,0.45,fowsr,2013-01-16 13:45:00,
2013-01-16 08:50:00,38.5,37.3,30.06,SW,225,0.7,2.2,94,0.00,,,0.44,fowsr,2013-01-16 13:50:00,
2013-01-16 08:55:00,38.5,37.3,30.06,NE,45,0.0,1.6,94,0.00,,,0.44,fowsr,2013-01-16 13:55:00,
2013-01-16 09:00:00,38.7,37.5,30.06,North,0,0.7,1.6,94,0.00,,,0.44,fowsr,2013-01-16 14:00:00,
2013-01-16 09:05:00,38.7,37.5,30.06,NE,45,0.7,2.2,94,0.00,,,0.44,fowsr,2013-01-16 14:05:00,
2013-01-16 09:10:00,38.8,37.7,30.05,North,0,1.6,3.1,94,0.00,,,0.44,fowsr,2013-01-16 14:10:00,
2013-01-16 09:15:00,38.8,37.7,30.05,SW,225,0.7,1.6,94,0.00,,,0.44,fowsr,2013-01-16 14:15:00,
2013-01-16 09:20:00,38.8,37.7,30.05,NW,315,2.2,3.1,94,0.00,,,0.44,fowsr,2013-01-16 14:20:00,
2013-01-16 09:25:00,38.8,37.7,30.05,North,0,0.7,2.2,94,0.00,,,0.44,fowsr,2013-01-16 14:25:00,
2013-01-16 09:30:00,38.8,37.7,30.04,North,0,1.6,3.8,94,0.00,,,0.44,fowsr,2013-01-16 14:30:00,
2013-01-16 09:35:00,38.8,37.7,30.05,NE,45,1.6,2.2,94,0.00,,,0.44,fowsr,2013-01-16 14:35:00,
2013-01-16 09:40:00,39.0,37.9,30.05,East,90,0.0,0.0,94,0.00,,,0.44,fowsr,2013-01-16 14:40:00,
2013-01-16 09:50:00,39.2,37.9,30.05,SW,225,0.0,0.7,93,0.00,,,0.44,fowsr,2013-01-16 14:50:00,
2013-01-16 09:55:00,39.2,37.9,30.05,SW,225,0.0,0.0,93,0.00,,,0.43,fowsr,2013-01-16 14:55:00,
2013-01-16 10:00:00,39.4,38.0,30.06,SW,225,0.0,1.6,93,0.00,,,0.43,fowsr,2013-01-16 15:00:00,
2013-01-16 10:05:00,39.4,38.0,30.05,SW,225,0.0,0.0,93,0.00,,,0.43,fowsr,2013-01-16 15:05:00,
2013-01-16 10:10:00,39.6,38.2,30.05,SW,225,0.0,1.6,93,0.00,,,0.43,fowsr,2013-01-16 15:10:00,
2013-01-16 10:15:00,39.7,38.6,30.04,West,270,0.0,0.0,94,0.00,,,0.43,fowsr,2013-01-16 15:15:00,
2013-01-16 10:20:00,39.7,38.6,30.05,SW,225,1.6,2.2,94,0.00,,,0.43,fowsr,2013-01-16 15:20:00,
2013-01-16 10:25:00,39.7,38.6,30.05,South,180,0.0,0.7,94,0.00,,,0.43,fowsr,2013-01-16 15:25:00,
2013-01-16 10:30:00,39.9,38.8,30.04,South,180,0.7,1.6,94,0.01,,,0.44,fowsr,2013-01-16 15:30:00,
2013-01-16 10:35:00,39.9,38.8,30.04,South,180,0.7,1.6,94,0.02,,,0.45,fowsr,2013-01-16 15:35:00,
2013-01-16 10:40:00,39.9,38.8,30.05,SW,225,2.2,3.8,94,0.02,,,0.45,fowsr,2013-01-16 15:40:00,
2013-01-16 10:45:00,39.9,38.6,30.04,SW,225,1.6,3.1,93,0.02,,,0.45,fowsr,2013-01-16 15:45:00,
2013-01-16 10:50:00,39.9,38.8,30.03,SSW,202,1.6,3.1,94,0.04,,,0.46,fowsr,2013-01-16 15:50:00,
2013-01-16 10:55:00,39.9,38.6,30.04,South,180,1.6,3.1,93,0.04,,,0.46,fowsr,2013-01-16 15:55:00,
2013-01-16 11:00:00,39.9,38.8,30.03,South,180,0.7,2.2,94,0.04,,,0.46,fowsr,2013-01-16 16:00:00,
2013-01-16 11:05:00,40.1,38.9,30.02,SW,225,1.6,3.1,94,0.05,,,0.47,fowsr,2013-01-16 16:05:00,
2013-01-16 11:10:00,40.3,39.1,30.02,SSW,202,1.6,2.2,94,0.05,,,0.47,fowsr,2013-01-16 16:10:00,
2013-01-16 11:15:00,40.3,39.1,30.02,South,180,0.7,1.6,94,0.05,,,0.47,fowsr,2013-01-16 16:15:00,
2013-01-16 11:20:00,40.5,39.3,30.02,West,270,1.6,3.1,94,0.05,,,0.47,fowsr,2013-01-16 16:20:00,
2013-01-16 11:25:00,40.6,39.5,30.02,SE,135,2.2,3.8,94,0.05,,,0.47,fowsr,2013-01-16 16:25:00,
2013-01-16 11:30:00,40.8,39.7,30.02,SW,225,1.6,3.8,94,0.05,,,0.47,fowsr,2013-01-16 16:30:00,
2013-01-16 11:35:00,40.8,39.7,30.02,SW,225,2.2,3.8,94,0.04,,,0.47,fowsr,2013-01-16 16:35:00,
2013-01-16 11:40:00,40.6,39.5,30.02,South,180,1.6,2.2,94,0.02,,,0.47,fowsr,2013-01-16 16:40:00,
2013-01-16 11:45:00,40.8,39.7,30.01,South,180,2.2,5.4,94,0.02,,,0.47,fowsr,2013-01-16 16:45:00,
2013-01-16 11:50:00,41.0,39.6,30.00,SE,135,0.7,2.2,93,0.02,,,0.47,fowsr,2013-01-16 16:50:00,
2013-01-16 11:55:00,41.0,39.6,30.01,West,270,3.1,5.4,93,0.02,,,0.48,fowsr,2013-01-16 16:55:00,
2013-01-16 12:00:00,41.0,39.6,30.02,West,270,4.5,7.6,93,0.02,,,0.48,fowsr,2013-01-16 17:00:00,
2013-01-16 12:05:00,41.0,39.6,30.01,SW,225,4.5,6.9,93,0.02,,,0.48,fowsr,2013-01-16 17:05:00,
2013-01-16 12:10:00,41.0,39.6,30.00,SW,225,2.2,3.8,93,0.01,,,0.48,fowsr,2013-01-16 17:10:00,
2013-01-16 12:15:00,41.2,39.8,29.99,SE,135,2.2,5.4,93,0.01,,,0.48,fowsr,2013-01-16 17:15:00,
2013-01-16 12:20:00,41.4,40.0,29.99,WSW,247,1.6,3.1,93,0.01,,,0.48,fowsr,2013-01-16 17:20:00,
2013-01-16 12:25:00,41.2,39.8,29.99,SSE,157,3.1,6.0,93,0.01,,,0.48,fowsr,2013-01-16 17:25:00,
2013-01-16 12:30:00,41.2,39.8,29.97,NW,315,3.1,3.8,93,0.01,,,0.47,fowsr,2013-01-16 17:30:00,
2013-01-16 12:35:00,41.2,39.8,29.97,NW,315,2.2,3.1,93,0.01,,,0.47,fowsr,2013-01-16 17:35:00,
2013-01-16 12:40:00,41.4,40.0,29.97,South,180,1.6,3.1,93,0.01,,,0.47,fowsr,2013-01-16 17:40:00,
2013-01-16 12:45:00,41.4,40.0,29.99,South,180,3.1,4.5,93,0.01,,,0.47,fowsr,2013-01-16 17:45:00,
2013-01-16 12:50:00,41.4,40.0,29.97,East,90,1.6,3.1,93,0.01,,,0.47,fowsr,2013-01-16 17:50:00,
2013-01-16 13:00:00,41.4,40.0,29.96,SE,135,2.2,3.8,93,0.00,,,0.46,fowsr,2013-01-16 18:00:00,
2013-01-16 13:05:00,41.4,40.0,29.96,South,180,2.2,3.8,93,0.00,,,0.46,fowsr,2013-01-16 18:05:00,
2013-01-16 13:10:00,41.4,40.0,29.95,South,180,3.1,6.0,93,0.00,,,0.46,fowsr,2013-01-16 18:10:00,
2013-01-16 13:15:00,41.4,40.0,29.95,SE,135,0.7,2.2,93,0.00,,,0.46,fowsr,2013-01-16 18:15:00,
2013-01-16 13:20:00,41.4,40.0,29.93,SE,135,0.7,2.2,93,0.00,,,0.46,fowsr,2013-01-16 18:20:00,
2013-01-16 13:25:00,41.4,40.0,29.93,ESE,112,0.7,1.6,93,0.00,,,0.46,fowsr,2013-01-16 18:25:00,
2013-01-16 13:30:00,41.5,40.2,29.93,SE,135,1.6,2.2,93,0.00,,,0.46,fowsr,2013-01-16 18:30:00,
2013-01-16 13:35:00,41.5,40.2,29.93,East,90,0.7,1.6,93,0.00,,,0.45,fowsr,2013-01-16 18:35:00,
2013-01-16 13:40:00,41.7,40.3,29.92,SE,135,0.7,1.6,93,0.00,,,0.45,fowsr,2013-01-16 18:40:00,
2013-01-16 13:45:00,41.7,40.3,29.91,SE,135,0.7,1.6,93,0.00,,,0.45,fowsr,2013-01-16 18:45:00,
2013-01-16 13:50:00,41.9,40.5,29.92,SW,225,0.7,2.2,93,0.00,,,0.45,fowsr,2013-01-16 18:50:00,
2013-01-16 13:55:00,42.1,40.7,29.91,SE,135,0.7,1.6,93,0.00,,,0.45,fowsr,2013-01-16 18:55:00,
2013-01-16 14:00:00,42.1,40.7,29.92,SE,135,0.7,2.2,93,0.00,,,0.45,fowsr,2013-01-16 19:00:00,
2013-01-16 14:05:00,42.3,40.9,29.92,SE,135,1.6,2.2,93,0.00,,,0.45,fowsr,2013-01-16 19:05:00,
2013-01-16 14:10:00,42.3,40.9,29.91,SE,135,0.7,2.2,93,0.00,,,0.45,fowsr,2013-01-16 19:10:00,
2013-01-16 14:15:00,42.3,40.9,29.91,SE,135,3.1,5.4,93,0.00,,,0.45,fowsr,2013-01-16 19:15:00,
2013-01-16 14:20:00,42.3,40.9,29.91,NE,45,2.2,3.8,93,0.00,,,0.44,fowsr,2013-01-16 19:20:00,
2013-01-16 14:25:00,42.3,40.9,29.91,East,90,3.8,6.9,93,0.00,,,0.44,fowsr,2013-01-16 19:25:00,
2013-01-16 14:30:00,42.3,40.9,29.92,ESE,112,2.2,3.8,93,0.00,,,0.44,fowsr,2013-01-16 19:30:00,
2013-01-16 14:35:00,42.4,41.3,29.91,SE,135,2.2,3.1,94,0.00,,,0.44,fowsr,2013-01-16 19:35:00,
2013-01-16 14:40:00,42.6,41.4,29.93,South,180,0.7,1.6,94,0.00,,,0.44,fowsr,2013-01-16 19:40:00,
2013-01-16 14:45:00,42.8,41.4,29.93,SE,135,1.6,2.2,93,0.00,,,0.44,fowsr,2013-01-16 19:45:00,
2013-01-16 14:50:00,43.0,41.6,29.93,SE,135,3.8,6.9,93,0.00,,,0.44,fowsr,2013-01-16 19:50:00,
2013-01-16 14:55:00,43.2,41.8,29.92,East,90,2.2,3.8,93,0.00,,,0.44,fowsr,2013-01-16 19:55:00,
2013-01-16 15:00:00,43.2,41.8,29.92,East,90,2.2,3.8,93,0.00,,,0.43,fowsr,2013-01-16 20:00:00,
2013-01-16 15:05:00,43.3,42.0,29.92,SE,135,1.6,3.1,93,0.00,,,0.43,fowsr,2013-01-16 20:05:00,
2013-01-16 15:10:00,43.3,42.0,29.92,SE,135,3.1,3.8,93,0.00,,,0.43,fowsr,2013-01-16 20:10:00,
2013-01-16 15:15:00,43.3,42.0,29.95,NW,315,3.1,6.0,93,0.00,,,0.43,fowsr,2013-01-16 20:15:00,
2013-01-16 15:20:00,43.5,42.1,30.00,NW,315,3.8,5.4,93,0.00,,,0.43,fowsr,2013-01-16 20:20:00,
2013-01-16 15:25:00,43.3,42.0,30.00,SW,225,4.5,7.6,93,0.00,,,0.43,fowsr,2013-01-16 20:25:00,
2013-01-16 15:30:00,43.3,42.0,29.99,SE,135,3.8,9.8,93,0.00,,,0.43,fowsr,2013-01-16 20:30:00,
2013-01-16 15:35:00,43.2,41.8,29.97,West,270,2.2,5.4,93,0.00,,,0.43,fowsr,2013-01-16 20:35:00,
2013-01-16 15:40:00,43.0,41.6,29.95,NW,315,0.7,1.6,93,0.00,,,0.43,fowsr,2013-01-16 20:40:00,
2013-01-16 15:45:00,43.0,41.4,29.92,East,90,1.6,2.2,92,0.00,,,0.43,fowsr,2013-01-16 20:45:00,
2013-01-16 15:50:00,42.8,41.2,29.91,East,90,1.6,3.1,92,0.00,,,0.43,fowsr,2013-01-16 20:50:00,
2013-01-16 15:55:00,42.8,41.2,29.93,West,270,0.7,1.6,92,0.00,,,0.43,fowsr,2013-01-16 20:55:00,
2013-01-16 16:00:00,42.8,41.2,29.94,SW,225,1.6,2.2,92,0.00,,,0.43,fowsr,2013-01-16 21:00:00,
2013-01-16 16:05:00,42.8,41.2,29.97,West,270,2.2,3.1,92,0.00,,,0.43,fowsr,2013-01-16 21:05:00,
2013-01-16 16:10:00,42.8,41.2,29.97,West,270,2.2,4.5,92,0.00,,,0.43,fowsr,2013-01-16 21:10:00,
2013-01-16 16:15:00,42.6,41.2,29.99,West,270,3.8,8.3,93,0.00,,,0.41,fowsr,2013-01-16 21:15:00,
2013-01-16 16:20:00,42.6,41.2,29.99,North,0,2.2,4.5,93,0.00,,,0.41,fowsr,2013-01-16 21:20:00,
2013-01-16 16:25:00,42.3,40.9,29.99,West,270,5.4,6.9,93,0.00,,,0.41,fowsr,2013-01-16 21:25:00,
2013-01-16 16:30:00,42.1,40.7,29.99,South,180,3.1,7.6,93,0.00,,,0.41,fowsr,2013-01-16 21:30:00,
2013-01-16 16:35:00,41.9,40.5,30.03,SW,225,5.4,13.0,93,0.00,,,0.41,fowsr,2013-01-16 21:35:00,
2013-01-16 16:40:00,41.9,40.5,30.00,SW,225,2.2,3.1,93,0.00,,,0.41,fowsr,2013-01-16 21:40:00,
2013-01-16 16:45:00,41.7,40.1,30.00,West,270,3.1,5.4,92,0.00,,,0.41,fowsr,2013-01-16 21:45:00,
2013-01-16 16:50:00,41.7,40.1,30.00,NW,315,4.5,6.9,92,0.00,,,0.41,fowsr,2013-01-16 21:50:00,
2013-01-16 16:55:00,41.5,40.0,30.01,NW,315,3.1,6.0,92,0.00,,,0.41,fowsr,2013-01-16 21:55:00,
2013-01-16 17:00:00,41.4,39.8,30.01,West,270,3.1,5.4,92,0.00,,,0.41,fowsr,2013-01-16 22:00:00,
2013-01-16 17:05:00,41.2,39.6,29.98,North,0,1.6,3.1,92,0.00,,,0.41,fowsr,2013-01-16 22:05:00,
2013-01-16 17:10:00,41.0,39.4,29.98,South,180,1.6,3.8,92,0.00,,,0.41,fowsr,2013-01-16 22:10:00,
2013-01-16 17:15:00,41.0,39.4,29.97,SW,225,2.2,4.5,92,0.00,,,0.41,fowsr,2013-01-16 22:15:00,
2013-01-16 17:20:00,40.8,39.5,29.99,SE,135,3.1,5.4,93,0.00,,,0.41,fowsr,2013-01-16 22:20:00,
2013-01-16 17:25:00,40.8,39.5,30.00,SW,225,1.6,3.1,93,0.00,,,0.41,fowsr,2013-01-16 22:25:00,
2013-01-16 17:30:00,40.6,39.3,30.01,WSW,247,3.8,9.2,93,0.00,,,0.41,fowsr,2013-01-16 22:30:00,
2013-01-16 17:35:00,40.8,39.5,30.02,South,180,4.5,6.9,93,0.00,,,0.41,fowsr,2013-01-16 22:35:00,
2013-01-16 17:40:00,40.5,39.1,30.01,SE,135,1.6,3.8,93,0.00,,,0.41,fowsr,2013-01-16 22:40:00,
2013-01-16 17:45:00,40.1,38.5,29.99,West,270,1.6,3.1,92,0.00,,,0.41,fowsr,2013-01-16 22:45:00,
2013-01-16 17:50:00,39.7,38.2,30.00,NW,315,1.6,3.8,92,0.00,,,0.41,fowsr,2013-01-16 22:50:00,
2013-01-16 17:55:00,39.7,38.2,30.00,West,270,1.6,4.5,92,0.01,,,0.43,fowsr,2013-01-16 22:55:00,
2013-01-16 18:00:00,39.6,38.0,30.00,West,270,1.6,2.2,92,0.01,,,0.43,fowsr,2013-01-16 23:00:00,
2013-01-16 18:05:00,39.6,38.0,30.01,North,0,1.6,3.1,92,0.01,,,0.43,fowsr,2013-01-16 23:05:00,
2013-01-16 18:10:00,39.6,38.0,30.02,WSW,247,0.7,2.2,92,0.01,,,0.43,fowsr,2013-01-16 23:10:00,
2013-01-16 18:15:00,39.6,38.0,30.00,East,90,1.6,3.1,92,0.01,,,0.43,fowsr,2013-01-16 23:15:00,
2013-01-16 18:25:00,39.6,38.0,30.00,South,180,0.7,2.2,92,0.01,,,0.43,fowsr,2013-01-16 23:25:00,
2013-01-16 18:30:00,39.7,38.4,30.00,South,180,2.2,3.8,93,0.01,,,0.43,fowsr,2013-01-16 23:30:00,
2013-01-16 18:35:00,40.1,38.7,29.99,SE,135,1.6,3.1,93,0.01,,,0.43,fowsr,2013-01-16 23:35:00,
2013-01-16 18:40:00,40.3,38.9,30.00,WSW,247,1.6,2.2,93,0.01,,,0.43,fowsr,2013-01-16 23:40:00,
2013-01-16 18:45:00,40.5,39.1,30.01,WSW,247,2.2,3.8,93,0.01,,,0.41,fowsr,2013-01-16 23:45:00,
2013-01-16 18:50:00,40.6,39.3,30.01,SW,225,3.1,3.8,93,0.01,,,0.41,fowsr,2013-01-16 23:50:00,
2013-01-16 18:55:00,40.8,39.5,30.03,SE,135,0.7,1.6,93,0.01,,,0.41,fowsr,2013-01-16 23:55:00,
2013-01-16 19:00:00,41.0,39.6,30.03,SW,225,1.6,3.1,93,0.00,,,0.41,fowsr,2013-01-17 00:00:00,
2013-01-16 19:10:00,41.4,40.0,30.03,NW,315,2.2,4.5,93,0.00,,,0.41,fowsr,2013-01-17 00:10:00,
2013-01-16 19:15:00,41.5,40.2,30.02,WNW,292,1.6,3.1,93,0.00,,,0.41,fowsr,2013-01-17 00:15:00,
2013-01-16 19:20:00,41.7,40.3,30.03,SW,225,2.2,4.5,93,0.00,,,0.41,fowsr,2013-01-17 00:20:00,
2013-01-16 19:25:00,41.7,40.3,30.03,SW,225,3.1,6.9,93,0.00,,,0.41,fowsr,2013-01-17 00:25:00,
2013-01-16 19:30:00,41.7,40.3,30.02,South,180,0.7,1.6,93,0.00,,,0.41,fowsr,2013-01-17 00:30:00,
2013-01-16 19:35:00,41.7,40.3,30.02,SW,225,0.7,3.8,93,0.00,,,0.41,fowsr,2013-01-17 00:35:00,
2013-01-16 19:40:00,41.7,40.3,30.02,WSW,247,0.0,1.6,93,0.00,,,0.41,fowsr,2013-01-17 00:40:00,
2013-01-16 19:45:00,41.7,40.3,30.01,West,270,0.7,2.2,93,0.00,,,0.41,fowsr,2013-01-17 00:45:00,
2013-01-16 19:50:00,41.7,40.3,30.01,SW,225,0.7,1.6,93,0.00,,,0.41,fowsr,2013-01-17 00:50:00,
2013-01-16 19:55:00,41.7,40.3,30.02,SW,225,1.6,3.8,93,0.00,,,0.41,fowsr,2013-01-17 00:55:00,
2013-01-16 20:00:00,41.7,40.3,30.03,South,180,1.6,3.1,93,0.00,,,0.41,fowsr,2013-01-17 01:00:00,
2013-01-16 20:05:00,41.7,40.3,30.02,West,270,1.6,3.1,93,0.00,,,0.41,fowsr,2013-01-17 01:05:00,
2013-01-16 20:10:00,41.9,40.5,30.03,South,180,2.2,3.1,93,0.00,,,0.41,fowsr,2013-01-17 01:10:00,
2013-01-16 20:15:00,41.7,40.3,30.02,NW,315,0.0,1.6,93,0.00,,,0.40,fowsr,2013-01-17 01:15:00,
2013-01-16 20:20:00,41.7,40.3,30.02,SW,225,0.7,1.6,93,0.00,,,0.40,fowsr,2013-01-17 01:20:00,
2013-01-16 20:25:00,41.7,40.3,30.03,SW,225,3.8,5.4,93,0.00,,,0.40,fowsr,2013-01-17 01:25:00,
2013-01-16 20:30:00,41.7,40.3,30.03,SW,225,3.1,4.5,93,0.00,,,0.40,fowsr,2013-01-17 01:30:00,
2013-01-16 20:40:00,41.7,40.3,30.02,SW,225,2.2,3.8,93,0.00,,,0.40,fowsr,2013-01-17 01:40:00,
2013-01-16 20:45:00,41.7,40.3,30.03,SW,225,1.6,3.1,93,0.00,,,0.40,fowsr,2013-01-17 01:45:00,
2013-01-16 20:50:00,41.7,40.3,30.01,South,180,2.2,3.1,93,0.00,,,0.40,fowsr,2013-01-17 01:50:00,
2013-01-16 20:55:00,41.7,40.3,30.03,SW,225,1.6,3.8,93,0.00,,,0.40,fowsr,2013-01-17 01:55:00,
2013-01-16 21:00:00,41.7,40.1,30.03,West,270,2.2,3.8,92,0.00,,,0.40,fowsr,2013-01-17 02:00:00,
2013-01-16 21:05:00,41.7,40.1,30.04,SW,225,2.2,3.8,92,0.00,,,0.40,fowsr,2013-01-17 02:05:00,
2013-01-16 21:10:00,41.7,40.1,30.03,South,180,1.6,3.1,92,0.00,,,0.40,fowsr,2013-01-17 02:10:00,
2013-01-16 21:15:00,41.7,40.1,30.02,NNW,337,1.6,2.2,92,0.00,,,0.40,fowsr,2013-01-17 02:15:00,
2013-01-16 21:20:00,41.7,40.1,30.02,South,180,2.2,3.8,92,0.00,,,0.40,fowsr,2013-01-17 02:20:00,
2013-01-16 21:25:00,41.7,40.1,30.03,SW,225,1.6,3.1,92,0.00,,,0.39,fowsr,2013-01-17 02:25:00,
2013-01-16 21:30:00,41.7,40.1,30.02,SW,225,2.2,3.1,92,0.00,,,0.39,fowsr,2013-01-17 02:30:00,
2013-01-16 21:35:00,41.7,40.1,30.03,South,180,1.6,3.1,92,0.00,,,0.39,fowsr,2013-01-17 02:35:00,
2013-01-16 21:40:00,41.9,40.3,30.02,West,270,1.6,3.1,92,0.00,,,0.39,fowsr,2013-01-17 02:40:00,
2013-01-16 21:45:00,41.9,40.3,30.03,SW,225,0.7,2.2,92,0.00,,,0.39,fowsr,2013-01-17 02:45:00,
2013-01-16 21:50:00,41.9,40.3,30.03,SW,225,1.6,2.2,92,0.00,,,0.38,fowsr,2013-01-17 02:50:00,
2013-01-16 21:55:00,41.9,40.3,30.03,SW,225,0.7,2.2,92,0.00,,,0.38,fowsr,2013-01-17 02:55:00,
2013-01-16 22:00:00,41.9,40.3,30.02,SW,225,1.6,3.1,92,0.00,,,0.38,fowsr,2013-01-17 03:00:00,
2013-01-16 22:05:00,41.9,40.3,30.02,West,270,0.7,1.6,92,0.00,,,0.38,fowsr,2013-01-17 03:05:00,
2013-01-16 22:15:00,42.1,40.5,30.01,SW,225,1.6,3.1,92,0.00,,,0.38,fowsr,2013-01-17 03:15:00,
2013-01-16 22:20:00,41.9,40.3,30.02,West,270,1.6,3.1,92,0.00,,,0.38,fowsr,2013-01-17 03:20:00,
2013-01-16 22:25:00,41.9,40.3,30.02,SW,225,1.6,3.1,92,0.00,,,0.37,fowsr,2013-01-17 03:25:00,
2013-01-16 22:30:00,41.9,40.1,30.02,SW,225,0.7,2.2,91,0.00,,,0.37,fowsr,2013-01-17 03:30:00,
2013-01-16 22:35:00,41.9,40.1,30.01,South,180,1.6,3.8,91,0.00,,,0.37,fowsr,2013-01-17 03:35:00,
2013-01-16 22:40:00,41.9,40.1,30.01,South,180,0.7,2.2,91,0.00,,,0.35,fowsr,2013-01-17 03:40:00,
2013-01-16 22:45:00,41.9,40.1,30.02,SW,225,1.6,3.1,91,0.00,,,0.35,fowsr,2013-01-17 03:45:00,
2013-01-16 22:50:00,41.9,40.1,30.03,SW,225,1.6,3.1,91,0.00,,,0.34,fowsr,2013-01-17 03:50:00,
2013-01-16 22:55:00,42.1,40.3,30.03,SW,225,2.2,3.8,91,0.00,,,0.34,fowsr,2013-01-17 03:55:00,
2013-01-16 23:00:00,42.1,40.3,30.03,SSW,202,1.6,2.2,91,0.00,,,0.34,fowsr,2013-01-17 04:00:00,
2013-01-16 23:05:00,42.1,40.3,30.02,SSW,202,1.6,2.2,91,0.00,,,0.33,fowsr,2013-01-17 04:05:00,
2013-01-16 23:10:00,42.1,40.3,30.03,West,270,0.0,0.7,91,0.00,,,0.33,fowsr,2013-01-17 04:10:00,
2013-01-16 23:15:00,42.1,40.1,30.03,SW,225,0.7,1.6,90,0.00,,,0.32,fowsr,2013-01-17 04:15:00,
2013-01-16 23:20:00,42.1,40.1,30.04,South,180,2.2,3.8,90,0.00,,,0.32,fowsr,2013-01-17 04:20:00,
2013-01-16 23:25:00,42.3,40.3,30.03,West,270,1.6,3.8,90,0.00,,,0.32,fowsr,2013-01-17 04:25:00,
2013-01-16 23:30:00,42.3,40.3,30.03,SSW,202,1.6,2.2,90,0.00,,,0.31,fowsr,2013-01-17 04:30:00,
2013-01-16 23:35:00,42.3,40.3,30.03,SW,225,1.6,2.2,90,0.00,,,0.31,fowsr,2013-01-17 04:35:00,
2013-01-16 23:40:00,42.3,40.3,30.03,SW,225,0.7,3.1,90,0.00,,,0.31,fowsr,2013-01-17 04:40:00,
2013-01-16 23:45:00,42.3,40.3,30.03,SW,225,2.2,3.1,90,0.00,,,0.31,fowsr,2013-01-17 04:45:00,
2013-01-16 23:50:00,42.3,40.3,30.03,West,270,1.6,3.8,90,0.00,,,0.31,fowsr,2013-01-17 04:50:00,
2013-01-16 23:55:00,42.3,40.3,30.04,South,180,2.2,3.1,90,0.00,,,0.31,fowsr,2013-01-17 04:55:00,